Regional Weather Roundup
Issued by NWS

Home | Current Version | Previous Version | Text Only | Print | Product List | Glossary Off
Versions: 1 2 3 4 5 6 7 8 9 10 11 12 13 14 15 16 17 18 19 20 21 22 23 24 25 26 27 28 29 30 31 32 33 34 35 36 37 38 39 40 41 42 43 44 45 46 47 48 49 50

000
ASUS43 KDTX 280510
RWRMI
MICHIGAN HOURLY REGIONAL WEATHER ROUNDUP
NATIONAL WEATHER SERVICE DETROIT/PONTIAC MI
1200 AM EST TUE FEB 28 2017

NOTE: "FAIR" INDICATES FEW OR NO CLOUDS BELOW 12,000 FEET WITH NO
SIGNIFICANT WEATHER AND/OR OBSTRUCTION TO VISIBILITY.

MIZ047>049-052>055-059>063-066>070-074>076-081>083-280600-
SOUTHEAST LOWER MICHIGAN

CITY           SKY/WX    TMP DP  RH WIND       PRES   REMARKS
ADRIAN         CLOUDY    37  36  96 S5        30.19F WCI  33
ALMA           CLEAR     37  32  82 S3        30.15S
ANN ARBOR      CLOUDY    38  36  92 SE5       30.18F WCI  34
BAD AXE        CLOUDY    37  32  82 S8        30.17F WCI  31
CARO           CLOUDY    35  31  83 CALM      30.17S
DETROIT CITY   CLOUDY    41  37  86 S7        30.21S
DETROIT        CLOUDY    40  37  89 SE7       30.21S
FLINT          CLOUDY    40  34  79 S8        30.18S WCI  34
GROSSE ILE     CLOUDY    38  36  93 SE6       30.20F WCI  33
HILLSDALE      MOCLDY    37  36  93 SE7       30.16S WCI  32
HOWELL         CLOUDY    39  35  83 S7        30.17S WCI  34

CITY           SKY/WX    TMP DP  RH WIND       PRES   REMARKS
JACKSON        CLOUDY    38  33  82 S7        30.16F WCI  33
LAMBERTVILLE   CLOUDY    40  37  87 CALM      30.20F
LANSING        CLOUDY    40  32  73 S8        30.15F WCI  34
LAPEER         FAIR      38  32  78 S6        30.18F WCI  34
MASON          PTCLDY    39  35  85 S6        30.16S WCI  35
MONROE         CLOUDY    38  37  95 CALM      30.20S
MT. CLEMENS    PTCLDY    34  34  99 S7        30.19S WCI  28
PONTIAC        CLOUDY    40  35  83 S6        30.17S
PORT HOPE        N/A     39  31  72 S6        30.16S WCI  35
PORT HURON     CLOUDY    34  32  93 S3        30.21F
TRI CITIES     CLOUDY    39  33  79 S8        30.16S WCI  33
MIDLAND        FAIR      36  28  73 CALM      30.15R
TROY           CLOUDY    42  37  81 S7        30.21F
SAGINAW HB     CLOUDY    36  30  80 S6        30.16S WCI  31
$$
MIZ043>046-050>051-056>058-064>065-071>073-077>080-280600-
SOUTHWEST LOWER MICHIGAN

CITY           SKY/WX    TMP DP  RH WIND       PRES   REMARKS
BATTLE CREEK   MOCLDY    42  37  82 S12       30.13F
BENTON HARBOR  CLOUDY    45  37  73 SE9       30.08F
BIG RAPIDS     PTCLDY    29  26  91 CALM      30.11F
COLDWATER      CLOUDY    40  38  91 S7        30.14F
FREMONT        CLOUDY    39  28  64 SE6       30.10F WCI  35
HOLLAND        CLOUDY    42  34  73 SE8       30.10F
GRAND RAPIDS   CLOUDY    38  32  79 SE7       30.11F WCI  33
IONIA          FAIR      38  32  81 SE9       30.12F WCI  31
KALAMAZOO      PTCLDY    42  35  76 S7        30.13F
LUDINGTON      PTCLDY    34  31  88 E5        30.08F WCI  30
MARSHALL       CLOUDY    40  37  87 SE7       30.14F
MOUNT PLEASANT PTCLDY    36  29  76 CALM      30.13S
MUSKEGON       CLOUDY    42  33  70 SE10      30.09F
SOUTH HAVEN    MOCLDY    45  37  74 SE6       30.09F
$$
MIZ016>042-280600-
NORTHERN LOWER MICHIGAN

CITY           SKY/WX    TMP DP  RH WIND       PRES   REMARKS
ALPENA         CLOUDY    32  29  88 S3        30.15F
BEAVER ISLAND  PTCLDY    26  23  91 SE5       30.08F WCI  20
BELLAIRE       CLEAR     27  26  93 CALM      30.12S
CADILLAC       CLEAR     26  24  93 CALM      30.09S
CHARLEVOIX     CLEAR     31  25  77 S5        30.12F WCI  26
FRANKFORT      CLEAR     33  28  80 CALM      30.09S
GAYLORD        CLEAR     30  21  69 CALM      30.10S
GRAYLING       CLEAR     26  23  88 CALM      30.12S
HARBOR SPRINGS PTCLDY    28  23  83 E3        30.10F
HOUGHTON LAKE  CLOUDY    32  23  69 SE5       30.12S WCI  27
MANISTEE       MOCLDY    28  25  88 E7        30.09F WCI  21
OSCODA         CLOUDY    28  24  87 CALM      30.15S
PELLSTON       CLOUDY    25  20  81 CALM      30.11F
ROGERS CITY    MOCLDY    35  27  75 S9        30.14S WCI  27
TRAVERSE CITY  CLEAR     31  25  78 CALM      30.09F
$$
MIZ007>008-015-280600-
EASTERN UPPER MICHIGAN

CITY           SKY/WX    TMP DP  RH WIND       PRES   REMARKS
KINROSS        PTCLDY    25  23  93 SE7       30.10F WCI  17
MACKINAC ISLAN CLOUDY    31  25  77 S8        30.09F WCI  24
NEWBERRY       CLOUDY    25  22  88 S6        30.06F WCI  18
S. S. MARIE    CLEAR     24  20  84 E5        30.11F WCI  18
MUNISING         N/A     33  27  78 S8        30.03F WCI  26
$$
MIZ004>006-011>014-085-280600-
CENTRAL UPPER MICHIGAN

CITY           SKY/WX    TMP DP  RH WIND       PRES   REMARKS
MANISTIQUE     CLOUDY    32  32  99 SE7       30.06S FOG     WCI  26
ESCANABA       CLOUDY    30  29  96 CALM      30.05
MENOMINEE      CLOUDY    32  30  92 S5        30.05S WCI  27
SAWYER-GWINN   CLOUDY    30  25  81 S8        30.00F WCI  22
$$
MIZ001>003-009>011-084-280600-
WESTERN UPPER MICHIGAN

CITY           SKY/WX    TMP DP  RH WIND       PRES   REMARKS
IRON MOUNTAIN  CLOUDY    30  23  75 SE3       29.99F
HOUGHTON       PTCLDY    26  20  77 S3        29.94S
COPPER HARBOR    N/A     30  22  72 SW9       29.95F WCI  22
IRONWOOD       CLOUDY    35  20  54 S13G18    29.89F WCI  26
$$

ABBREVIATIONS USED IN REMARKS
   TC - TEMPERATURE IN CELSIUS
  WCI - WIND CHILL INDEX
   HX - HEAT INDEX
  VSB - VISIBILITY




USA.gov is the U.S. government's official web portal to all federal, state and local government web resources and services.